Content
SEND FEEDBACK

Daily
Averages
Monthly
Summary
Norfolk Island

KINGSTON, NORFOLK ISLAND


Home > Oceania > Norfolk Island
Elevation: 370 feet     Latitude: 29 03S     Longitude: 167 56E

WEATHER
 
SELECT A DAY
Number of Records: 297,687;   Date Range: 7/1/96 - 9/21/14
 
SHARE

PRINT THIS DATA

[ ← Previous Day ]
WEATHER ALMANAC - FEBRUARY 5, 2013
[ Next Day → ]
[ °C ]   °F
Weather ElementAverageHighLow
Temperature70.3 °F75.2 °F (11:00 am)68 °F (1:00 pm)
Dewpoint65.6 °F68 °F (2:49 am)60.8 °F (8:00 pm)
Humidity84.5 %94 % (4:10 am)73 % (8:00 pm)
Barometer29.87 in29.98 in (10:04 pm)29.79 in (3:00 am)
Wind Speed13 mph21.9 mph (5:00 pm)
Wind Gust32.2 mph (3:54 pm)
Weather ElementAverage
Visibility5.4 mi
Wind DirectionSSE (169.8 °)

Weather ElementTotal
Precipitation---
Cooling Degree Days6.6 (Base 65)
Growing Degree Days21.6 (Base 50)
Averaged from 85 records on February 5, 2013
WEATHER CONDITIONS BREAKOUT
WIND DIRECTION BREAKOUT
WEATHER BY HOUR - FEBRUARY 5, 2013
[ °C ]   °F
Local TimeTemperatureDewpointHumidityBarometerVisibilityWind DirectionWind SpeedGust SpeedPrecipitationEventsConditions
12:00 AM69.8 °F66.2 °F88 %29.83 in6.2 miNW (320°)4.6 mphScattered Clouds
12:30 AM69.8 °F66.2 °F88 %29.83 in6.2 miNNW (330°)5.8 mphScattered Clouds
1:00 AM71.6 °F66.2 °F83 %29.83 in6.2 miNNW (330°)5.8 mphScattered Clouds
1:30 AM71.6 °F66.2 °F83 %29.80 in6.2 miNNW (340°)4.6 mphOvercast
2:00 AM71.6 °F66.2 °F83 %29.80 in6.2 miNorth (360°)2.3 mphOvercast
2:30 AM71.6 °F66.2 °F83 %29.80 in6.2 miNNW (330°)3.5 mphOvercast
2:30 AM71.0 °F67.0 °F83 %29.80 inNNW (330°)3.5 mph
2:49 AM71.6 °F68.0 °F88 %29.80 in6.2 miWNW (300°)6.9 mphRainLight Rain
3:00 AM71.0 °F68.0 °F88 %29.79 inNW (320°)5.8 mphOvercast
3:00 AM71.6 °F68.0 °F88 %29.80 in6.2 miNW (320°)5.8 mphRainLight Rain Showers
3:16 AM71.6 °F68.0 °F88 %29.80 in6.2 miNNW (330°)5.8 mphOvercast
3:30 AM69.8 °F66.2 °F88 %29.80 in6.2 miNW (320°)5.8 mphMostly Cloudy
4:00 AM69.8 °F66.2 °F88 %29.80 in6.2 miCalmMostly Cloudy
4:10 AM69.8 °F68.0 °F94 %29.80 in6.2 miCalmOvercast
4:30 AM69.8 °F68.0 °F94 %29.80 in5.0 miWNW (290°)1.2 mphDrizzle
4:31 AM69.8 °F68.0 °F94 %29.80 in3.7 miWNW (290°)1.2 mphRainLight Rain
4:46 AM69.8 °F68.0 °F94 %29.80 in2.5 miWNW (290°)6.9 mphRainRain
5:00 AM69.8 °F66.2 °F88 %29.80 in5.6 miCalmRainRain Showers
5:08 AM69.8 °F66.2 °F88 %29.80 in6.2 miWest (280°)1.2 mphRainLight Rain Showers
5:30 AM69.0 °F67.0 °F91 %29.81 inWest (280°)3.5 mph
5:30 AM69.8 °F66.2 °F88 %29.80 in6.2 miWest (280°)3.5 mphOvercast
6:00 AM69.8 °F66.2 °F88 %29.83 in6.2 miCalmMostly Cloudy
6:00 AM69.0 °F67.0 °F91 %29.82 inCalmOvercast
6:33 AM69.8 °F68.0 °F94 %29.83 in4.3 miSouth (170°)8.1 mphDrizzle
7:00 AM69.8 °F68.0 °F94 %29.83 in3.1 miSE (130°)4.6 mphLight Drizzle
7:30 AM69.8 °F68.0 °F94 %29.86 in6.2 miESE (110°)2.3 mphMostly Cloudy
8:00 AM73.4 °F66.2 °F78 %29.86 in6.2 miSE (130°)3.5 mphMostly Cloudy
8:30 AM73.4 °F68.0 °F83 %29.86 in6.2 miSouth (170°)9.2 mphMostly Cloudy
8:30 AM73.0 °F68.0 °F79 %29.85 inSouth (170°)9.2 mph
9:00 AM73.0 °F68.0 °F80 %29.86 in9.0 miSSE (160°)10.4 mphMostly Cloudy
9:00 AM73.4 °F68.0 °F83 %29.86 in6.2 miSSE (160°)10.4 mphScattered Clouds
9:30 AM73.4 °F68.0 °F83 %29.86 in6.2 miSSE (160°)13.8 mphScattered Clouds
10:00 AM73.4 °F68.0 °F83 %29.86 in6.2 miSSE (160°)13.8 mphOvercast
10:30 AM73.4 °F68.0 °F83 %29.86 in6.2 miSSE (150°)12.7 mphScattered Clouds
11:00 AM75.2 °F68.0 °F78 %29.86 in6.2 miSE (140°)12.7 mphMostly Cloudy
11:30 AM74.0 °F67.0 °F74 %29.87 inSE (140°)13.8 mph
11:30 AM73.4 °F68.0 °F83 %29.86 in6.2 miSE (140°)13.8 mphMostly Cloudy
12:00 PM72.0 °F67.0 °F79 %29.88 in9.0 miSE (140°)17.3 mphMostly Cloudy
12:00 PM71.6 °F66.2 °F83 %29.89 in6.2 miSE (140°)17.3 mphMostly Cloudy
12:28 PM71.6 °F68.0 °F88 %29.89 in6.2 miSE (140°)17.3 mph28.8 mphMostly Cloudy
12:30 PM71.6 °F66.2 °F83 %29.89 in4.3 miSE (140°)17.3 mph28.8 mphLight Drizzle
1:00 PM68.0 °F66.2 °F94 %29.89 in2.2 miSE (140°)18.4 mphLight Drizzle
1:30 PM69.8 °F68.0 °F94 %29.89 in4.3 miSE (130°)16.1 mphLight Drizzle
1:52 PM69.8 °F66.2 °F88 %29.86 in1.9 miSE (130°)16.1 mphLight Drizzle
2:00 PM68.0 °F66.2 °F94 %29.86 in1.9 miSE (140°)19.6 mphLight Drizzle
2:13 PM68.0 °F66.2 °F94 %29.86 in1.6 miSSE (150°)19.6 mph31.1 mphLight Drizzle
2:30 PM69.0 °F66.0 °F87 %29.87 inSE (130°)16.1 mph
2:30 PM68.0 °F66.2 °F94 %29.86 in2.5 miSE (130°)16.1 mphLight Drizzle
3:00 PM69.8 °F68.0 °F94 %29.86 in5.0 miESE (120°)11.5 mphLight Drizzle
3:00 PM70.0 °F68.0 °F90 %29.86 in5.0 miESE (120°)11.5 mphRainLight Drizzle
3:30 PM68.0 °F66.2 °F94 %29.86 inESE (120°)13.8 mphRainRain Showers
3:46 PM69.8 °F66.2 °F88 %29.86 in6.2 miSE (130°)17.3 mph28.8 mphRainLight Rain Showers
3:54 PM69.8 °F66.2 °F88 %29.86 in6.2 miSE (130°)19.6 mph32.2 mphOvercast
3:55 PM69.8 °F66.2 °F88 %29.86 in6.2 miSE (140°)19.6 mph32.2 mphOvercast
3:59 PM69.8 °F66.2 °F88 %29.86 in3.7 miSE (140°)20.7 mph32.2 mphMostly Cloudy
4:09 PM69.8 °F66.2 °F88 %29.86 in3.1 miSE (140°)19.6 mphMostly Cloudy
4:26 PM69.8 °F64.4 °F83 %29.86 in6.2 miSE (140°)19.6 mph31.1 mphOvercast
4:36 PM69.8 °F66.2 °F88 %29.86 in5.0 miSE (140°)20.7 mphMostly Cloudy
4:42 PM69.8 °F64.4 °F83 %29.86 in5.0 miSE (140°)19.6 mph31.1 mphMostly Cloudy
5:00 PM69.8 °F64.4 °F83 %29.86 in3.7 miSE (140°)21.9 mphRainLight Rain Showers
5:06 PM69.8 °F64.4 °F83 %29.86 in1.9 miSE (140°)21.9 mphRainLight Rain Showers
5:18 PM69.8 °F64.4 °F83 %29.89 in3.1 miSE (130°)18.4 mph29.9 mphRainLight Rain Showers
5:30 PM70.0 °F64.0 °F75 %29.88 inSE (140°)19.6 mph
5:30 PM69.8 °F64.4 °F83 %29.89 in6.2 miSE (140°)19.6 mph31.1 mphRainLight Rain Showers
5:34 PM69.8 °F64.4 °F83 %29.89 in3.1 miSE (140°)18.4 mph29.9 mphMostly Cloudy
5:44 PM69.8 °F62.6 °F78 %29.89 in6.2 miSE (140°)18.4 mph29.9 mphMostly Cloudy
6:00 PM70.0 °F64.0 °F76 %29.88 in7.0 miSE (140°)21.9 mphRainLight Rain Showers
6:00 PM69.8 °F64.4 °F83 %29.89 in6.2 miSE (140°)21.9 mphMostly Cloudy
6:11 PM69.8 °F64.4 °F83 %29.89 in6.2 miSE (130°)17.3 mph32.2 mphOvercast
6:30 PM69.8 °F62.6 °F78 %29.89 in6.2 miSE (140°)19.6 mphMostly Cloudy
7:00 PM69.8 °F62.6 °F78 %29.92 in6.2 miSE (140°)19.6 mphMostly Cloudy
7:34 PM69.8 °F62.6 °F78 %29.92 in6.2 miSE (130°)17.3 mph31.1 mphMostly Cloudy
7:54 PM69.8 °F62.6 °F78 %29.92 in5.6 miSE (130°)17.3 mphOvercast
8:00 PM69.8 °F60.8 °F73 %29.92 in6.2 miSE (140°)19.6 mph31.1 mphMostly Cloudy
8:07 PM69.8 °F60.8 °F73 %29.95 in6.2 miSE (140°)20.7 mph32.2 mphMostly Cloudy
8:30 PM69.8 °F62.6 °F78 %29.95 in6.2 miSE (140°)19.6 mphMostly Cloudy
8:30 PM69.0 °F63.0 °F74 %29.94 inSE (140°)19.6 mph
8:53 PM69.8 °F60.8 °F73 %29.95 in5.6 miSE (130°)20.7 mph32.2 mphOvercast
9:00 PM69.8 °F60.8 °F73 %29.95 in6.2 miSE (140°)20.7 mph32.2 mphMostly Cloudy
9:34 PM69.8 °F60.8 °F73 %29.95 in6.2 miSE (140°)18.4 mph29.9 mphMostly Cloudy
10:04 PM69.8 °F60.8 °F73 %29.98 in6.2 miSE (130°)17.3 mph28.8 mphMostly Cloudy
10:30 PM68.0 °F60.8 °F78 %29.95 in6.2 miSE (130°)19.6 mphRainLight Rain Showers
10:35 PM68.0 °F62.6 °F83 %29.98 in6.2 miSE (140°)19.6 mph31.1 mphRainLight Rain Showers
11:00 PM68.0 °F62.6 °F83 %29.98 in3.1 miSE (130°)18.4 mph29.9 mphRainLight Rain Showers
11:29 PM68.0 °F60.8 °F78 %29.98 in5.0 miSE (140°)19.6 mph32.2 mphMostly Cloudy
Hourly data recorded from YSNF, located miles away from Kingston, Norfolk Island







STORIES FROM OUR PARTNERS